Terminal Aerodrome Forecast
Issued by NWS

Home | Current Version | Previous Version | Text Only | Print | Product List | Glossary On
Versions: 1 2 3 4 5 6 7 8 9 10 11 12 13 14 15 16 17 18 19 20 21 22 23 24 25 26 27 28 29 30 31 32 33 34 35 36 37 38 39 40 41 42 43 44 45 46 47 48 49 50
000
FTUS41 KCTP 021620 AAB
TAFBFD
TAF AMD
KBFD 021620Z 0216/0312 23008G15KT P6SM BKN035
     FM021830 25010G20KT 5SM -SHRA BR BKN035
      TEMPO 0219/0222 2SM TSRA OVC030CB
     FM030100 28007KT P6SM SCT030=

USA.gov is the U.S. government's official web portal to all federal, state and local government web resources and services.